Location: Unspecified
(0.0000°N, 0.0000°E)
Time: 20:31:07
(UTC+00:00)

DMSP 5D-2 F13 DEB - Pass Details

Date: 12 March 2026
Orbit: 780 x 797 km, 98.7° (Epoch: 11 April)

Event Time Altitude Azimuth Distance (km) Brightness Sun altitude
Rises 18:47:56 0° 158° (SSE) 3,266 ? -9.6°
Reaches altitude 10° 18:50:19 10° 152° (SSE) 2,337 ? -10.1°
Maximum altitude 18:55:18 50° 77° (ENE) 993 ? -11.4°
Drops below altitude 10° 19:00:16 10° 3° (N) 2,338 ? -12.6°
Sets 19:02:39 0° 358° (N) 3,266 ? -13.2°
